• Join FlightAware (Why Join?)
  • Login
  • US Flag GB Flag 
22:38 EST


 

Airport Tracker/Info


-or-


 

Live Flight TrackerFlight Track Log ✈ SWA3943 ✈ 19-Apr-2013 ✈ KCMH - KBWI

Flight Track Log - Related Links

Times and Time Zones

All times are in EDT time to prevent confusion due to time zone crossing. See the SWA3943 flight status page for this flight to view local times or setup timezone preferences in your user account.

Time Position Orientation Groundspeed Altitude Reporting Facility
EDT Latitude Longitude Course Direction KTS MPH feet Rate Location/Type
20:53 39.9972 -82.9286 273° West 148 170 2,700  Level Indianapolis Center
20:54 39.9983 -82.9544 273° West 174 200 3,600 3,360 Climbing Indianapolis Center
20:54 39.9764 -82.9889 230° Southwest 207 238 6,500 3,540 Climbing Indianapolis Center
20:55 39.9597 -82.9789 155° Southeast 220 253 7,200 2,640 Climbing Indianapolis Center
20:56 39.9500 -82.8786 97° East 283 326 10,400 2,580 Climbing Indianapolis Center
20:57 39.9519 -82.7525 89° East 352 405 12,600 2,400 Climbing Indianapolis Center
20:58 39.9578 -82.5950 87° East 371 427 15,300 2,400 Climbing Indianapolis Center
20:59 39.9622 -82.4339 88° East 437 503 17,600 2,280 Climbing Indianapolis Center
21:00 39.9694 -82.2731 87° East 441 507 20,000 1,860 Climbing Indianapolis Center
21:01 39.9756 -82.0989 87° East 473 544 21,400 1,800 Climbing Indianapolis Center
21:02 39.9831 -81.9150 87° East 499 574 23,800 2,040 Climbing Indianapolis Center
21:03 39.9889 -81.7372 87° East 502 578 25,700 1,980 Climbing Indianapolis Center
21:04 39.9953 -81.5503 87° East 511 588 27,900 1,620 Climbing Indianapolis Center
21:05 40.0011 -81.3650 88° East 509 586 29,000 480 Climbing Indianapolis Center
21:06 40.0006 -81.1800 90° East 506 582 29,000  Level Indianapolis Center
21:07 39.9850 -81.0492 99° East 483 556 29,000  Level Cleveland Center
21:08 39.9583 -80.8864 102° East 464 534 29,000  Level Cleveland Center
21:09 39.9317 -80.7267 102° East 452 520 29,000  Level Cleveland Center
21:10 39.9067 -80.5642 101° East 452 520 29,000  Level Cleveland Center
21:11 39.8814 -80.4019 101° East 452 520 29,000  Level Cleveland Center
21:12 39.8539 -80.2369 102° East 452 520 29,000  Level Cleveland Center
21:13 39.8283 -80.0750 102° East 452 520 29,000  Level Cleveland Center
21:14 39.8025 -79.9156 102° East 452 520 29,000  Level Cleveland Center
21:15 39.7764 -79.7564 102° East 452 520 29,000  Level Cleveland Center
21:16 39.7503 -79.5947 102° East 452 520 29,000  Level Cleveland Center
21:16 39.7283 -79.4742 103° East 452 520 29,000 -240 Level Washington Center
21:17 39.7039 -79.3192 102° East 438 504 28,600 -1,500 Descending Washington Center
21:18 39.6794 -79.1694 102° East 427 491 26,100 -1,800 Descending Washington Center
21:19 39.6503 -79.0225 104° East 427 491 25,000 -600 Descending Washington Center
21:20 39.6111 -78.8536 107° East 433 498 25,000 -600 Level Washington Center
21:21 39.5778 -78.7039 106° East 438 504 23,800 -1,800 Descending Washington Center
21:22 39.5439 -78.5572 107° East 433 498 21,500 -2,220 Descending Washington Center
21:23 39.5100 -78.4053 106° East 433 498 19,400 -2,400 Descending Washington Center
21:24 39.4800 -78.2589 105° East 433 498 16,800 -2,220 Descending Washington Center
21:25 39.4539 -78.1153 103° East 417 480 15,000 -900 Descending Washington Center
21:26 39.4506 -77.9700 92° East 412 474 15,000  Level Washington Center
21:27 39.4492 -77.8303 91° East 402 463 15,000  Level Washington Center
21:28 39.4494 -77.6906 90° East 396 456 15,000 -480 Level Washington Center
21:29 39.4478 -77.5481 91° East 396 456 14,100 -1,680 Descending Washington Center
21:30 39.4458 -77.4083 91° East 396 456 11,700 -1,980 Descending Washington Center
21:31 39.4500 -77.3333 86° East 379 436 11,000 -720 Descending Potomac TRACON
21:32 39.4667 -77.2000 81° East 345 397 10,600 -1,200 Descending Potomac TRACON
21:33 39.4833 -77.0833 79° East 352 405 8,700 -1,620 Descending Potomac TRACON
21:34 39.4833 -76.9833 90° East 318 366 7,600 -1,320 Descending Potomac TRACON
21:35 39.4667 -76.8833 102° East 290 334 6,200 -1,320 Descending Potomac TRACON
21:36 39.4500 -76.7833 102° East 268 308 5,000 -600 Descending Potomac TRACON
21:37 39.4333 -76.7000 104° East 263 303 5,000  Level Potomac TRACON
21:38 39.4167 -76.6000 102° East 278 320 5,000  Level Potomac TRACON
21:39 39.4000 -76.5167 104° East 274 315 5,000 -1,020 Level Potomac TRACON
21:40 39.3333 -76.4667 150° Southeast 269 310 3,000 -1,020 Descending Potomac TRACON
21:41 39.2667 -76.4500 169° South 258 297 3,000  Level Potomac TRACON
21:42 39.1833 -76.4167 163° South 248 285 3,000  Level Potomac TRACON
21:43 39.1500 -76.4333 201° Southwest 178 205 3,000 -600 Level Potomac TRACON
21:44 39.1167 -76.4833 229° Southwest 177 204 2,000 -540 Descending Potomac TRACON
21:45 39.0833 -76.5333 229° Southwest 182 209 2,000  Level Potomac TRACON
21:46 39.0833 -76.5833 270° West 181 208 2,000 -420 Level Potomac TRACON
21:47 39.1167 -76.6333 311° West 167 192 1,200 -780 Descending Potomac TRACON
21:48 39.1500 -76.6500 339° North 126 145 500 -780 Descending Potomac TRACON